User: anonymous   Login
Location: Mentone
(34.5413°N, 85.5351°W)
Time: 17:30:08
(UTC-06:00)
Language:

Cosmos 2150 Rocket - Orbit

View from above orbital plane
View from above orbital plane
View from above satellite
View from above satellite

Ground track
Ground track

The orbit data is extracted from the following two-line orbital elements,

1 21419U 91041B   17014.55358244 -.00000028  00000-0 -71816-6 0  9992
2 21419  74.0374 220.5380 0041286 186.5889 203.7779 14.33839096338454
Epoch (UTC): 14 January 2017 13:17:09
Eccentricity: 0.0041286
inclination: 74.0374°
perigee height: 749 km
apogee height: 808 km
right ascension of ascending node: 220.5380°
argument of perigee: 186.5889°
revolutions per day: 14.33839096
mean anomaly at epoch: 203.7779°
orbit number at epoch: 33845

The dashed part of the orbit path shows where the satellite is in the earth's shadow,  

DLR